iso_date,epoch_date,Year,Hour,Min,DOY,POS_DOY,Lat,Lon,BP,Ts,Ta,has_bp,has_ts,has_ta,BuoyID,Buoy_Type,Buoy_Owner,Logistics,Hemisphere
2020-12-27T01:00:02Z,1609030803,2020,1,0,362.0417,362.0417,71.06191,-168.41375,1011.9,-999.00,-999.0,yes,no,no,300534061417930,unknown,unknown,unknown,North
2020-12-27T01:59:57Z,1609034397,2020,2,0,362.0833,362.0833,71.05878,-168.41469,1011.9,-999.00,-999.0,yes,no,no,300534061417930,unknown,unknown,unknown,North
2020-12-27T03:00:00Z,1609038000,2020,3,0,362.125,362.125,71.05497,-168.41499,1012.1,-999.00,-999.0,yes,no,no,300534061417930,unknown,unknown,unknown,North
2020-12-27T04:00:02Z,1609041603,2020,4,0,362.1667,362.1667,71.05089,-168.41454,1012.5,-999.00,-999.0,yes,no,no,300534061417930,unknown,unknown,unknown,North
2020-12-27T04:59:57Z,1609045197,2020,5,0,362.2083,362.2083,71.04646,-168.41338,1012.6,-999.00,-999.0,yes,no,no,300534061417930,unknown,unknown,unknown,North
2020-12-27T06:00:00Z,1609048800,2020,6,0,362.25,362.25,71.04148,-168.41293,1013.0,-999.00,-999.0,yes,no,no,300534061417930,unknown,unknown,unknown,North
2020-12-27T07:00:02Z,1609052403,2020,7,0,362.2917,362.2917,71.03586,-168.41454,1012.6,-999.00,-999.0,yes,no,no,300534061417930,unknown,unknown,unknown,North
2020-12-27T07:59:57Z,1609055997,2020,8,0,362.3333,362.3333,71.03021,-168.4187,1012.9,-999.00,-999.0,yes,no,no,300534061417930,unknown,unknown,unknown,North
2020-12-27T09:00:00Z,1609059600,2020,9,0,362.375,362.375,71.02507,-168.42457,1012.8,-999.00,-999.0,yes,no,no,300534061417930,unknown,unknown,unknown,North
2020-12-27T10:00:02Z,1609063203,2020,10,0,362.4167,362.4167,71.02063,-168.43186,1013.0,-999.00,-999.0,yes,no,no,300534061417930,unknown,unknown,unknown,North
2020-12-27T10:59:57Z,1609066797,2020,11,0,362.4583,362.4583,71.01692,-168.4392,1012.7,-999.00,-999.0,yes,no,no,300534061417930,unknown,unknown,unknown,North
2020-12-27T12:00:00Z,1609070400,2020,12,0,362.5,362.5,71.01344,-168.44625,1012.5,-999.00,-999.0,yes,no,no,300534061417930,unknown,unknown,unknown,North
2020-12-27T13:00:02Z,1609074003,2020,13,0,362.5417,362.5417,71.00991,-168.4524,1012.6,-999.00,-999.0,yes,no,no,300534061417930,unknown,unknown,unknown,North
2020-12-27T13:59:57Z,1609077597,2020,14,0,362.5833,362.5833,71.00638,-168.45719,1012.4,-999.00,-999.0,yes,no,no,300534061417930,unknown,unknown,unknown,North
2020-12-27T15:00:00Z,1609081200,2020,15,0,362.625,362.625,71.00298,-168.46164,1012.3,-999.00,-999.0,yes,no,no,300534061417930,unknown,unknown,unknown,North
2020-12-27T16:00:02Z,1609084803,2020,16,0,362.6667,362.6667,70.99912,-168.46532,1012.4,-999.00,-999.0,yes,no,no,300534061417930,unknown,unknown,unknown,North
2020-12-27T16:59:57Z,1609088397,2020,17,0,362.7083,362.7083,70.9946,-168.46996,1012.3,-999.00,-999.0,yes,no,no,300534061417930,unknown,unknown,unknown,North
2020-12-27T18:00:00Z,1609092000,2020,18,0,362.75,362.75,70.9899,-168.47613,1012.3,-999.00,-999.0,yes,no,no,300534061417930,unknown,unknown,unknown,North
2020-12-27T19:00:02Z,1609095603,2020,19,0,362.7917,362.7917,70.98502,-168.48351,1012.2,-999.00,-999.0,yes,no,no,300534061417930,unknown,unknown,unknown,North
2020-12-27T19:59:57Z,1609099197,2020,20,0,362.8333,362.8333,70.98022,-168.49253,1012.1,-999.00,-999.0,yes,no,no,300534061417930,unknown,unknown,unknown,North
2020-12-27T21:00:00Z,1609102800,2020,21,0,362.875,362.875,70.97589,-168.50121,1012.4,-999.00,-999.0,yes,no,no,300534061417930,unknown,unknown,unknown,North
2020-12-27T22:00:02Z,1609106403,2020,22,0,362.9167,362.9167,70.97162,-168.51162,1012.5,-999.00,-999.0,yes,no,no,300534061417930,unknown,unknown,unknown,North
2020-12-27T22:59:57Z,1609109997,2020,23,0,362.9583,362.9583,70.96785,-168.52152,1012.5,-999.00,-999.0,yes,no,no,300534061417930,unknown,unknown,unknown,North
2020-12-28T00:00:00Z,1609113600,2020,0,0,363.0,363.0,70.96461,-168.53127,1012.1,-999.00,-999.0,yes,no,no,300534061417930,unknown,unknown,unknown,North
2020-12-28T01:00:02Z,1609117203,2020,1,0,363.0417,363.0417,70.96183,-168.54085,1012.1,-999.00,-999.0,yes,no,no,300534061417930,unknown,unknown,unknown,North
2020-12-28T01:59:57Z,1609120797,2020,2,0,363.0833,363.0833,70.95904,-168.54941,1012.1,-999.00,-999.0,yes,no,no,300534061417930,unknown,unknown,unknown,North
2020-12-28T03:00:00Z,1609124400,2020,3,0,363.125,363.125,70.9566,-168.55807,1011.9,-999.00,-999.0,yes,no,no,300534061417930,unknown,unknown,unknown,North
2020-12-28T04:00:02Z,1609128003,2020,4,0,363.1667,363.1667,70.95401,-168.56657,1011.9,-999.00,-999.0,yes,no,no,300534061417930,unknown,unknown,unknown,North
2020-12-28T04:59:57Z,1609131597,2020,5,0,363.2083,363.2083,70.95151,-168.57503,1012.2,-999.00,-999.0,yes,no,no,300534061417930,unknown,unknown,unknown,North
2020-12-28T06:00:00Z,1609135200,2020,6,0,363.25,363.25,70.94863,-168.58338,1011.9,-999.00,-999.0,yes,no,no,300534061417930,unknown,unknown,unknown,North
2020-12-28T07:00:02Z,1609138803,2020,7,0,363.2917,363.2917,70.94544,-168.59211,1012.2,-999.00,-999.0,yes,no,no,300534061417930,unknown,unknown,unknown,North
2020-12-28T07:59:57Z,1609142397,2020,8,0,363.3333,363.3333,70.94243,-168.60082,1012.4,-999.00,-999.0,yes,no,no,300534061417930,unknown,unknown,unknown,North
2020-12-28T09:00:00Z,1609146000,2020,9,0,363.375,363.375,70.93926,-168.61001,1012.4,-999.00,-999.0,yes,no,no,300534061417930,unknown,unknown,unknown,North
2020-12-28T10:00:02Z,1609149603,2020,10,0,363.4167,363.4167,70.93626,-168.62059,1012.4,-999.00,-999.0,yes,no,no,300534061417930,unknown,unknown,unknown,North
2020-12-28T10:59:57Z,1609153197,2020,11,0,363.4583,363.4583,70.93317,-168.63247,1012.3,-999.00,-999.0,yes,no,no,300534061417930,unknown,unknown,unknown,North
2020-12-28T12:00:00Z,1609156800,2020,12,0,363.5,363.5,70.93029,-168.64458,1012.3,-999.00,-999.0,yes,no,no,300534061417930,unknown,unknown,unknown,North
2020-12-28T13:00:02Z,1609160403,2020,13,0,363.5417,363.5417,70.92784,-168.65556,1012.6,-999.00,-999.0,yes,no,no,300534061417930,unknown,unknown,unknown,North
2020-12-28T13:59:57Z,1609163997,2020,14,0,363.5833,363.5833,70.92557,-168.66535,1012.5,-999.00,-999.0,yes,no,no,300534061417930,unknown,unknown,unknown,North
2020-12-28T15:00:00Z,1609167600,2020,15,0,363.625,363.625,70.92357,-168.67353,1012.6,-999.00,-999.0,yes,no,no,300534061417930,unknown,unknown,unknown,North
2020-12-28T16:00:02Z,1609171203,2020,16,0,363.6667,363.6667,70.92162,-168.68025,1012.6,-999.00,-999.0,yes,no,no,300534061417930,unknown,unknown,unknown,North
2020-12-28T16:59:57Z,1609174797,2020,17,0,363.7083,363.7083,70.91918,-168.6866,1012.6,-999.00,-999.0,yes,no,no,300534061417930,unknown,unknown,unknown,North
2020-12-28T18:00:00Z,1609178400,2020,18,0,363.75,363.75,70.9159,-168.69275,1012.7,-999.00,-999.0,yes,no,no,300534061417930,unknown,unknown,unknown,North
2020-12-28T19:00:02Z,1609182003,2020,19,0,363.7917,363.7917,70.91184,-168.70009,1012.8,-999.00,-999.0,yes,no,no,300534061417930,unknown,unknown,unknown,North
2020-12-28T19:59:57Z,1609185597,2020,20,0,363.8333,363.8333,70.90752,-168.71108,1013.2,-999.00,-999.0,yes,no,no,300534061417930,unknown,unknown,unknown,North
2020-12-28T21:00:00Z,1609189200,2020,21,0,363.875,363.875,70.90299,-168.72332,1013.3,-999.00,-999.0,yes,no,no,300534061417930,unknown,unknown,unknown,North
2020-12-28T22:00:02Z,1609192803,2020,22,0,363.9167,363.9167,70.8986,-168.73717,1013.7,-999.00,-999.0,yes,no,no,300534061417930,unknown,unknown,unknown,North
2020-12-28T22:59:57Z,1609196397,2020,23,0,363.9583,363.9583,70.89454,-168.75217,1013.6,-999.00,-999.0,yes,no,no,300534061417930,unknown,unknown,unknown,North
2020-12-29T00:00:00Z,1609200000,2020,0,0,364.0,364.0,70.89108,-168.76613,1013.6,-999.00,-999.0,yes,no,no,300534061417930,unknown,unknown,unknown,North
2020-12-29T01:00:02Z,1609203603,2020,1,0,364.0417,364.0417,70.88778,-168.77914,1013.7,-999.00,-999.0,yes,no,no,300534061417930,unknown,unknown,unknown,North
2020-12-29T01:59:57Z,1609207197,2020,2,0,364.0833,364.0833,70.88429,-168.79018,1013.7,-999.00,-999.0,yes,no,no,300534061417930,unknown,unknown,unknown,North
2020-12-29T03:00:00Z,1609210800,2020,3,0,364.125,364.125,70.88084,-168.80116,1013.9,-999.00,-999.0,yes,no,no,300534061417930,unknown,unknown,unknown,North
2020-12-29T04:00:02Z,1609214403,2020,4,0,364.1667,364.1667,70.87743,-168.81213,1014.0,-999.00,-999.0,yes,no,no,300534061417930,unknown,unknown,unknown,North
2020-12-29T04:59:57Z,1609217997,2020,5,0,364.2083,364.2083,70.8737,-168.82243,1013.9,-999.00,-999.0,yes,no,no,300534061417930,unknown,unknown,unknown,North
2020-12-29T06:00:00Z,1609221600,2020,6,0,364.25,364.25,70.86957,-168.83296,1013.9,-999.00,-999.0,yes,no,no,300534061417930,unknown,unknown,unknown,North
2020-12-29T07:00:02Z,1609225203,2020,7,0,364.2917,364.2917,70.86526,-168.84504,1014.3,-999.00,-999.0,yes,no,no,300534061417930,unknown,unknown,unknown,North
2020-12-29T07:59:57Z,1609228797,2020,8,0,364.3333,364.3333,70.86062,-168.85757,1014.4,-999.00,-999.0,yes,no,no,300534061417930,unknown,unknown,unknown,North
2020-12-29T09:00:00Z,1609232400,2020,9,0,364.375,364.375,70.8556,-168.87213,1014.5,-999.00,-999.0,yes,no,no,300534061417930,unknown,unknown,unknown,North
2020-12-29T10:00:02Z,1609236003,2020,10,0,364.4167,364.4167,70.85048,-168.89042,1014.7,-999.00,-999.0,yes,no,no,300534061417930,unknown,unknown,unknown,North
2020-12-29T10:59:57Z,1609239597,2020,11,0,364.4583,364.4583,70.84561,-168.91021,1015.2,-999.00,-999.0,yes,no,no,300534061417930,unknown,unknown,unknown,North
2020-12-29T12:00:00Z,1609243200,2020,12,0,364.5,364.5,70.84125,-168.93137,1015.2,-999.00,-999.0,yes,no,no,300534061417930,unknown,unknown,unknown,North
2020-12-29T13:00:02Z,1609246803,2020,13,0,364.5417,364.5417,70.83741,-168.9538,1015.1,-999.00,-999.0,yes,no,no,300534061417930,unknown,unknown,unknown,North
2020-12-29T13:59:57Z,1609250397,2020,14,0,364.5833,364.5833,70.83397,-168.97709,1015.1,-999.00,-999.0,yes,no,no,300534061417930,unknown,unknown,unknown,North
2020-12-29T15:00:00Z,1609254000,2020,15,0,364.625,364.625,70.83108,-169.00046,1015.4,-999.00,-999.0,yes,no,no,300534061417930,unknown,unknown,unknown,North
2020-12-29T16:00:02Z,1609257603,2020,16,0,364.6667,364.6667,70.82878,-169.02201,1015.7,-999.00,-999.0,yes,no,no,300534061417930,unknown,unknown,unknown,North
2020-12-29T16:59:57Z,1609261197,2020,17,0,364.7083,364.7083,70.82656,-169.04129,1015.9,-999.00,-999.0,yes,no,no,300534061417930,unknown,unknown,unknown,North
2020-12-29T18:00:00Z,1609264800,2020,18,0,364.75,364.75,70.82391,-169.06004,1015.8,-999.00,-999.0,yes,no,no,300534061417930,unknown,unknown,unknown,North
2020-12-29T19:00:02Z,1609268403,2020,19,0,364.7917,364.7917,70.8208,-169.07899,1015.5,-999.00,-999.0,yes,no,no,300534061417930,unknown,unknown,unknown,North
2020-12-29T19:59:57Z,1609271997,2020,20,0,364.8333,364.8333,70.8174,-169.09984,1015.8,-999.00,-999.0,yes,no,no,300534061417930,unknown,unknown,unknown,North
2020-12-29T21:00:00Z,1609275600,2020,21,0,364.875,364.875,70.8142,-169.12237,1016.0,-999.00,-999.0,yes,no,no,300534061417930,unknown,unknown,unknown,North
2020-12-29T22:00:02Z,1609279203,2020,22,0,364.9167,364.9167,70.81109,-169.14651,1015.9,-999.00,-999.0,yes,no,no,300534061417930,unknown,unknown,unknown,North
2020-12-29T22:59:57Z,1609282797,2020,23,0,364.9583,364.9583,70.80807,-169.17188,1015.8,-999.00,-999.0,yes,no,no,300534061417930,unknown,unknown,unknown,North
2020-12-30T00:00:00Z,1609286400,2020,0,0,365.0,365.0,70.80525,-169.19869,1015.5,-999.00,-999.0,yes,no,no,300534061417930,unknown,unknown,unknown,North
2020-12-30T01:00:02Z,1609290003,2020,1,0,365.0417,365.0417,70.80316,-169.22661,1015.6,-999.00,-999.0,yes,no,no,300534061417930,unknown,unknown,unknown,North
2020-12-30T01:59:57Z,1609293597,2020,2,0,365.0833,365.0833,70.80175,-169.25561,1015.6,-999.00,-999.0,yes,no,no,300534061417930,unknown,unknown,unknown,North
2020-12-30T03:00:00Z,1609297200,2020,3,0,365.125,365.125,70.80089,-169.284,1015.5,-999.00,-999.0,yes,no,no,300534061417930,unknown,unknown,unknown,North
2020-12-30T04:00:02Z,1609300803,2020,4,0,365.1667,365.1667,70.80066,-169.31211,1015.6,-999.00,-999.0,yes,no,no,300534061417930,unknown,unknown,unknown,North
2020-12-30T04:59:57Z,1609304397,2020,5,0,365.2083,365.2083,70.80072,-169.33918,1015.6,-999.00,-999.0,yes,no,no,300534061417930,unknown,unknown,unknown,North
2020-12-30T06:00:00Z,1609308000,2020,6,0,365.25,365.25,70.80093,-169.36554,1015.2,-999.00,-999.0,yes,no,no,300534061417930,unknown,unknown,unknown,North
2020-12-30T07:00:02Z,1609311603,2020,7,0,365.2917,365.2917,70.80043,-169.39184,1015.2,-999.00,-999.0,yes,no,no,300534061417930,unknown,unknown,unknown,North
2020-12-30T07:59:57Z,1609315197,2020,8,0,365.3333,365.3333,70.79941,-169.42041,1014.9,-999.00,-999.0,yes,no,no,300534061417930,unknown,unknown,unknown,North
2020-12-30T09:00:00Z,1609318800,2020,9,0,365.375,365.375,70.7986,-169.45144,1014.8,-999.00,-999.0,yes,no,no,300534061417930,unknown,unknown,unknown,North
2020-12-30T10:00:02Z,1609322403,2020,10,0,365.4167,365.4167,70.7981,-169.48604,1014.9,-999.00,-999.0,yes,no,no,300534061417930,unknown,unknown,unknown,North
2020-12-30T10:59:57Z,1609325997,2020,11,0,365.4583,365.4583,70.79844,-169.52285,1014.9,-999.00,-999.0,yes,no,no,300534061417930,unknown,unknown,unknown,North
2020-12-30T12:00:00Z,1609329600,2020,12,0,365.5,365.5,70.79987,-169.56142,1014.8,-999.00,-999.0,yes,no,no,300534061417930,unknown,unknown,unknown,North
2020-12-30T13:00:02Z,1609333203,2020,13,0,365.5417,365.5417,70.8023,-169.5995,1014.7,-999.00,-999.0,yes,no,no,300534061417930,unknown,unknown,unknown,North
2020-12-30T13:59:57Z,1609336797,2020,14,0,365.5833,365.5833,70.80575,-169.63609,1014.8,-999.00,-999.0,yes,no,no,300534061417930,unknown,unknown,unknown,North
2020-12-30T15:00:00Z,1609340400,2020,15,0,365.625,365.625,70.80976,-169.67142,1014.4,-999.00,-999.0,yes,no,no,300534061417930,unknown,unknown,unknown,North
2020-12-30T16:00:02Z,1609344003,2020,16,0,365.6667,365.6667,70.81423,-169.70574,1014.1,-999.00,-999.0,yes,no,no,300534061417930,unknown,unknown,unknown,North
2020-12-30T16:59:57Z,1609347597,2020,17,0,365.7083,365.7083,70.81868,-169.73793,1014.2,-999.00,-999.0,yes,no,no,300534061417930,unknown,unknown,unknown,North
2020-12-30T18:00:00Z,1609351200,2020,18,0,365.75,365.75,70.82345,-169.77104,1013.8,-999.00,-999.0,yes,no,no,300534061417930,unknown,unknown,unknown,North
2020-12-30T19:00:02Z,1609354803,2020,19,0,365.7917,365.7917,70.82797,-169.8057,1013.6,-999.00,-999.0,yes,no,no,300534061417930,unknown,unknown,unknown,North
2020-12-30T19:59:57Z,1609358397,2020,20,0,365.8333,365.8333,70.83261,-169.84229,1013.5,-999.00,-999.0,yes,no,no,300534061417930,unknown,unknown,unknown,North
2020-12-30T21:00:00Z,1609362000,2020,21,0,365.875,365.875,70.83695,-169.87912,1013.7,-999.00,-999.0,yes,no,no,300534061417930,unknown,unknown,unknown,North
2020-12-30T22:00:02Z,1609365603,2020,22,0,365.9167,365.9167,70.84147,-169.91701,1013.6,-999.00,-999.0,yes,no,no,300534061417930,unknown,unknown,unknown,North
2020-12-30T22:59:57Z,1609369197,2020,23,0,365.9583,365.9583,70.84637,-169.95631,1013.4,-999.00,-999.0,yes,no,no,300534061417930,unknown,unknown,unknown,North
2020-12-31T00:00:00Z,1609372800,2020,0,0,366.0,366.0,70.85176,-169.99628,1013.5,-999.00,-999.0,yes,no,no,300534061417930,unknown,unknown,unknown,North
2020-12-31T01:00:02Z,1609376403,2020,1,0,366.0417,366.0417,70.85785,-170.03704,1013.2,-999.00,-999.0,yes,no,no,300534061417930,unknown,unknown,unknown,North
2020-12-31T01:59:57Z,1609379997,2020,2,0,366.0833,366.0833,70.86467,-170.07684,1013.3,-999.00,-999.0,yes,no,no,300534061417930,unknown,unknown,unknown,North
2020-12-31T03:00:00Z,1609383600,2020,3,0,366.125,366.125,70.8726,-170.11575,1013.6,-999.00,-999.0,yes,no,no,300534061417930,unknown,unknown,unknown,North
2020-12-31T04:00:02Z,1609387203,2020,4,0,366.1667,366.1667,70.88183,-170.1534,1013.6,-999.00,-999.0,yes,no,no,300534061417930,unknown,unknown,unknown,North
2020-12-31T04:59:57Z,1609390797,2020,5,0,366.2083,366.2083,70.89143,-170.18741,1013.2,-999.00,-999.0,yes,no,no,300534061417930,unknown,unknown,unknown,North
2020-12-31T06:00:00Z,1609394400,2020,6,0,366.25,366.25,70.90053,-170.21671,1012.9,-999.00,-999.0,yes,no,no,300534061417930,unknown,unknown,unknown,North
2020-12-31T07:00:02Z,1609398003,2020,7,0,366.2917,366.2917,70.90877,-170.24416,1013.0,-999.00,-999.0,yes,no,no,300534061417930,unknown,unknown,unknown,North
2020-12-31T07:59:57Z,1609401597,2020,8,0,366.3333,366.3333,70.91636,-170.2719,1012.5,-999.00,-999.0,yes,no,no,300534061417930,unknown,unknown,unknown,North
2020-12-31T09:00:00Z,1609405200,2020,9,0,366.375,366.375,70.92289,-170.29673,1012.3,-999.00,-999.0,yes,no,no,300534061417930,unknown,unknown,unknown,North
2020-12-31T10:00:02Z,1609408803,2020,10,0,366.4167,366.4167,70.92936,-170.3253,1012.3,-999.00,-999.0,yes,no,no,300534061417930,unknown,unknown,unknown,North
2020-12-31T10:59:57Z,1609412397,2020,11,0,366.4583,366.4583,70.93613,-170.35845,1012.3,-999.00,-999.0,yes,no,no,300534061417930,unknown,unknown,unknown,North
2020-12-31T12:00:00Z,1609416000,2020,12,0,366.5,366.5,70.94338,-170.39773,1012.1,-999.00,-999.0,yes,no,no,300534061417930,unknown,unknown,unknown,North
2020-12-31T13:00:02Z,1609419603,2020,13,0,366.5417,366.5417,70.95071,-170.43653,1011.6,-999.00,-999.0,yes,no,no,300534061417930,unknown,unknown,unknown,North
2020-12-31T13:59:57Z,1609423197,2020,14,0,366.5833,366.5833,70.95953,-170.47717,1011.5,-999.00,-999.0,yes,no,no,300534061417930,unknown,unknown,unknown,North
2020-12-31T15:00:00Z,1609426800,2020,15,0,366.625,366.625,70.96915,-170.51338,1011.2,-999.00,-999.0,yes,no,no,300534061417930,unknown,unknown,unknown,North
2020-12-31T16:00:02Z,1609430403,2020,16,0,366.6667,366.6667,70.98005,-170.55039,1010.6,-999.00,-999.0,yes,no,no,300534061417930,unknown,unknown,unknown,North
2020-12-31T16:59:57Z,1609433997,2020,17,0,366.7083,366.7083,70.99106,-170.58148,1010.5,-999.00,-999.0,yes,no,no,300534061417930,unknown,unknown,unknown,North
2020-12-31T18:00:00Z,1609437600,2020,18,0,366.75,366.75,71.00241,-170.60969,1010.5,-999.00,-999.0,yes,no,no,300534061417930,unknown,unknown,unknown,North
2020-12-31T19:00:02Z,1609441203,2020,19,0,366.7917,366.7917,71.01355,-170.63751,1010.4,-999.00,-999.0,yes,no,no,300534061417930,unknown,unknown,unknown,North
2020-12-31T19:59:57Z,1609444797,2020,20,0,366.8333,366.8333,71.02382,-170.66574,1010.1,-999.00,-999.0,yes,no,no,300534061417930,unknown,unknown,unknown,North
2020-12-31T21:00:00Z,1609448400,2020,21,0,366.875,366.875,71.03359,-170.6964,1009.9,-999.00,-999.0,yes,no,no,300534061417930,unknown,unknown,unknown,North
2020-12-31T22:00:02Z,1609452003,2020,22,0,366.9167,366.9167,71.04301,-170.73091,1009.7,-999.00,-999.0,yes,no,no,300534061417930,unknown,unknown,unknown,North
2020-12-31T22:59:57Z,1609455597,2020,23,0,366.9583,366.9583,71.05199,-170.76745,1010.0,-999.00,-999.0,yes,no,no,300534061417930,unknown,unknown,unknown,North
2021-01-01T00:00:00Z,1609459200,2021,0,0,1.0,1.0,71.06077,-170.80584,1009.6,-999.00,-999.0,yes,no,no,300534061417930,unknown,unknown,unknown,North
2021-01-01T01:00:02Z,1609462803,2021,1,0,1.0417,1.0417,71.07012,-170.84601,1009.6,-999.00,-999.0,yes,no,no,300534061417930,unknown,unknown,unknown,North
2021-01-01T01:59:57Z,1609466397,2021,2,0,1.0833,1.0833,71.08048,-170.88702,1009.7,-999.00,-999.0,yes,no,no,300534061417930,unknown,unknown,unknown,North
2021-01-01T03:00:00Z,1609470000,2021,3,0,1.125,1.125,71.09145,-170.92659,1009.8,-999.00,-999.0,yes,no,no,300534061417930,unknown,unknown,unknown,North
2021-01-01T04:00:02Z,1609473603,2021,4,0,1.1667,1.1667,71.1031,-170.96534,1010.0,-999.00,-999.0,yes,no,no,300534061417930,unknown,unknown,unknown,North
2021-01-01T04:59:57Z,1609477197,2021,5,0,1.2083,1.2083,71.11484,-171.00272,1010.2,-999.00,-999.0,yes,no,no,300534061417930,unknown,unknown,unknown,North
2021-01-01T06:00:00Z,1609480800,2021,6,0,1.25,1.25,71.1257,-171.03789,1010.1,-999.00,-999.0,yes,no,no,300534061417930,unknown,unknown,unknown,North
2021-01-01T07:00:02Z,1609484403,2021,7,0,1.2917,1.2917,71.13543,-171.07163,1010.1,-999.00,-999.0,yes,no,no,300534061417930,unknown,unknown,unknown,North
2021-01-01T07:59:57Z,1609487997,2021,8,0,1.3333,1.3333,71.14355,-171.10411,1010.3,-999.00,-999.0,yes,no,no,300534061417930,unknown,unknown,unknown,North
2021-01-01T09:00:00Z,1609491600,2021,9,0,1.375,1.375,71.14971,-171.13655,1010.5,-999.00,-999.0,yes,no,no,300534061417930,unknown,unknown,unknown,North
2021-01-01T10:00:02Z,1609495203,2021,10,0,1.4167,1.4167,71.15466,-171.17102,1010.6,-999.00,-999.0,yes,no,no,300534061417930,unknown,unknown,unknown,North
2021-01-01T10:59:57Z,1609498797,2021,11,0,1.4583,1.4583,71.15893,-171.20887,1010.9,-999.00,-999.0,yes,no,no,300534061417930,unknown,unknown,unknown,North
2021-01-01T12:00:00Z,1609502400,2021,12,0,1.5,1.5,71.16296,-171.24911,1011.1,-999.00,-999.0,yes,no,no,300534061417930,unknown,unknown,unknown,North
2021-01-01T13:00:02Z,1609506003,2021,13,0,1.5417,1.5417,71.16679,-171.28879,1011.1,-999.00,-999.0,yes,no,no,300534061417930,unknown,unknown,unknown,North
2021-01-01T13:59:57Z,1609509597,2021,14,0,1.5833,1.5833,71.17073,-171.32849,1010.7,-999.00,-999.0,yes,no,no,300534061417930,unknown,unknown,unknown,North
2021-01-01T15:00:00Z,1609513200,2021,15,0,1.625,1.625,71.17527,-171.36778,1010.8,-999.00,-999.0,yes,no,no,300534061417930,unknown,unknown,unknown,North
2021-01-01T16:00:02Z,1609516803,2021,16,0,1.6667,1.6667,71.18052,-171.40564,1011.0,-999.00,-999.0,yes,no,no,300534061417930,unknown,unknown,unknown,North
2021-01-01T16:59:57Z,1609520397,2021,17,0,1.7083,1.7083,71.18587,-171.44013,1011.4,-999.00,-999.0,yes,no,no,300534061417930,unknown,unknown,unknown,North
2021-01-01T18:00:00Z,1609524000,2021,18,0,1.75,1.75,71.19082,-171.47215,1011.7,-999.00,-999.0,yes,no,no,300534061417930,unknown,unknown,unknown,North
2021-01-01T19:00:02Z,1609527603,2021,19,0,1.7917,1.7917,71.19459,-171.50003,1011.7,-999.00,-999.0,yes,no,no,300534061417930,unknown,unknown,unknown,North
2021-01-01T19:59:57Z,1609531197,2021,20,0,1.8333,1.8333,71.19704,-171.52573,1012.0,-999.00,-999.0,yes,no,no,300534061417930,unknown,unknown,unknown,North
2021-01-01T21:00:00Z,1609534800,2021,21,0,1.875,1.875,71.19807,-171.55072,1012.4,-999.00,-999.0,yes,no,no,300534061417930,unknown,unknown,unknown,North
2021-01-01T22:00:02Z,1609538403,2021,22,0,1.9167,1.9167,71.19826,-171.57732,1012.8,-999.00,-999.0,yes,no,no,300534061417930,unknown,unknown,unknown,North
2021-01-01T22:59:57Z,1609541997,2021,23,0,1.9583,1.9583,71.19763,-171.60403,1013.0,-999.00,-999.0,yes,no,no,300534061417930,unknown,unknown,unknown,North
2021-01-02T00:00:00Z,1609545600,2021,0,0,2.0,2.0,71.19636,-171.63186,1013.2,-999.00,-999.0,yes,no,no,300534061417930,unknown,unknown,unknown,North
2021-01-02T01:00:02Z,1609549203,2021,1,0,2.0417,2.0417,71.19473,-171.65977,1013.2,-999.00,-999.0,yes,no,no,300534061417930,unknown,unknown,unknown,North
2021-01-02T01:59:57Z,1609552797,2021,2,0,2.0833,2.0833,71.19321,-171.68787,1013.2,-999.00,-999.0,yes,no,no,300534061417930,unknown,unknown,unknown,North
2021-01-02T03:00:00Z,1609556400,2021,3,0,2.125,2.125,71.19199,-171.71429,1013.3,-999.00,-999.0,yes,no,no,300534061417930,unknown,unknown,unknown,North
2021-01-02T04:00:02Z,1609560003,2021,4,0,2.1667,2.1667,71.19104,-171.73741,1013.6,-999.00,-999.0,yes,no,no,300534061417930,unknown,unknown,unknown,North
2021-01-02T04:59:57Z,1609563597,2021,5,0,2.2083,2.2083,71.19016,-171.75624,1013.8,-999.00,-999.0,yes,no,no,300534061417930,unknown,unknown,unknown,North
2021-01-02T06:00:00Z,1609567200,2021,6,0,2.25,2.25,71.18939,-171.7715,1013.8,-999.00,-999.0,yes,no,no,300534061417930,unknown,unknown,unknown,North
2021-01-02T07:00:02Z,1609570803,2021,7,0,2.2917,2.2917,71.18809,-171.78258,1013.7,-999.00,-999.0,yes,no,no,300534061417930,unknown,unknown,unknown,North
2021-01-02T07:59:57Z,1609574397,2021,8,0,2.3333,2.3333,71.18599,-171.79021,1013.8,-999.00,-999.0,yes,no,no,300534061417930,unknown,unknown,unknown,North
2021-01-02T09:00:00Z,1609578000,2021,9,0,2.375,2.375,71.18303,-171.79596,1013.9,-999.00,-999.0,yes,no,no,300534061417930,unknown,unknown,unknown,North